Погода в Коминтерне

Россия / Оренбургская область     52°22′36″N   59°22′32″E
темп.,
°C
ветер,
м/с
пор.,
м/с
влажн.,
%
обл.,
%
осадки,
мм/ч
давл.,
гПа
погр.,
м
12 мая, ср
ср1223:00+14юв223670 0.0 102811
02:00+12ю22435 0.0 102811
05:00+11ю224782 0.0 102910
08:00+15юз124041 0.0 1030177
11:00+20ю222935 0.0 10291252
14:00+22ююв222474 0.0 10291913
17:00+23ю212244 0.0 10282077
20:00+20ю11305 0.0 102811
13 мая, чт
чт1323:00+17юз22320 0.0 102812
02:00+14з33440 0.0 102822
05:00+13зсз22450 0.0 102811
08:00+18зсз22362 0.0 1029158
11:00+23сз22250 0.0 10281180
14:00+26з11212 0.0 10272052
17:00+26з2121100 0.0 10262240
20:00+22з2230100 0.0 102613
14 мая, пт
пт1423:00+19сз22339 0.0 102712
02:00+17сз22362 0.0 102712
05:00+15с22450 0.0 102812
08:00+20ссз22400 0.0 1028167
11:00+25сз11270 0.0 10281028
14:00+27зюз22230 0.0 10272553
17:00+28з33204 0.0 10262831
20:00+23сз35330 0.0 102671
15 мая, сб
сб1523:00+20сз22320 0.0 102613
02:00+17ссз23494 0.0 102625
05:00+16с2251100 0.0 102611
08:00+21ссв114320 0.0 1026138
11:00+26зюз34264 0.0 10251611
14:00+28зюз44211 0.0 10242550
17:00+28з44195 0.0 10232715
20:00+24зсз33292 0.0 102330
16 мая, вс
вс1623:00+19зюз35433 0.0 102362
02:00+18сз35545 0.0 102264
05:00+16с22581 0.0 102315
08:00+21ссз11485 0.0 1023195
11:00+26сз223534 0.0 1022917
14:00+29юз012534 0.0 10212733
17:00+29ююв11238 0.0 10203168
20:00+26юв113220 0.0 102013